Satellite: HAWKSAT1
Catalog number: 35003
Epoch time:      09203.92547445
Element set:    0057
Inclination:      040.4711 deg
RA of node:       026.4037 deg
Eccentricity:    0.0027032
Arg of perigee:   071.9101 deg
Mean anomaly:     288.4655 deg
Mean motion:   15.39948051 rev/day
Decay rate:       8.57e-06 rev/day^2
Epoch rev:           00986
Checksum:              285

Satellite: CP6
Catalog number: 35004
Epoch time:      09203.85260605
Element set:      50
Inclination:      040.4623 deg
RA of node:       026.6701 deg
Eccentricity:    0.0027044
Arg of perigee:   071.1399 deg
Mean anomaly:     289.2349 deg
Mean motion:   15.40247322 rev/day
Decay rate:      2.234e-05 rev/day^2
Epoch rev:             984
Checksum:              264

Satellite: AEROCUB3
Catalog number: 35005
Epoch time:      09204.83286483
Element set:      51
Inclination:      040.4741 deg
RA of node:       020.9789 deg
Eccentricity:    0.0026762
Arg of perigee:   076.0195 deg
Mean anomaly:     284.3596 deg
Mean motion:   15.40089232 rev/day
Decay rate:      3.291e-05 rev/day^2
Epoch rev:             999
Checksum:              306

/EX





More information about the Keps mailing list